| time (UTC) | temp F | wind direction | speed knots | gust knots | rain 1hr in | rain 24hr in | rain mn in | humidity % | barometer mb |
| 20260505214529 | 53 | 27 | 4.3 | 9.6 | 0.00 | 0.02 | 0.00 | 79 | 1014.0 |
| 20260505213030 | 53 | 10 | 5.2 | 8.7 | 0.00 | 0.02 | 0.00 | 79 | 1014.1 |
| 20260505211532 | 53 | 13 | 2.6 | 6.1 | 0.00 | 0.02 | 0.00 | 78 | 1014.1 |
| 20260505210031 | 53 | 353 | 2.6 | 7.8 | 0.00 | 0.02 | 0.00 | 78 | 1014.1 |
| 20260505204531 | 53 | 325 | 4.3 | 8.7 | 0.00 | 0.02 | 0.00 | 77 | 1014.1 |
| 20260505203036 | 53 | 308 | 6.1 | 10.4 | 0.00 | 0.02 | 0.00 | 77 | 1013.9 |
| 20260505201545 | 53 | 326 | 5.2 | 11.3 | 0.00 | 0.02 | 0.00 | 76 | 1013.8 |
| 20260505200033 | 54 | 333 | 5.2 | 10.4 | 0.00 | 0.02 | 0.00 | 76 | 1013.8 |
| 20260505194532 | 54 | 343 | 5.2 | 10.4 | 0.00 | 0.02 | 0.00 | 75 | 1013.7 |
| 20260505193032 | 55 | 19 | 6.1 | 11.3 | 0.00 | 0.02 | 0.00 | 74 | 1013.5 |
| 20260505191529 | 55 | 332 | 4.3 | 11.3 | 0.00 | 0.02 | 0.00 | 71 | 1013.5 |
| 20260505190035 | 56 | 24 | 7.0 | 10.4 | 0.00 | 0.02 | 0.00 | 70 | 1013.5 |
| 20260505184532 | 56 | 10 | 6.1 | 12.2 | 0.00 | 0.02 | 0.00 | 70 | 1013.4 |
| 20260505183044 | 56 | 17 | 7.8 | 13.0 | 0.00 | 0.02 | 0.00 | 70 | 1013.4 |
| 20260505181534 | 57 | 4 | 6.1 | 13.0 | 0.00 | 0.02 | 0.00 | 69 | 1013.3 |
| 20260505180031 | 57 | 316 | 4.3 | 10.4 | 0.00 | 0.02 | 0.00 | 69 | 1013.3 |
| 20260505174528 | 57 | 257 | 7.0 | 13.9 | 0.00 | 0.02 | 0.00 | 68 | 1013.3 |
| 20260505173040 | 58 | 323 | 7.8 | 14.8 | 0.00 | 0.02 | 0.00 | 67 | 1013.2 |
| 20260505171542 | 58 | 18 | 6.1 | 13.0 | 0.00 | 0.02 | 0.00 | 67 | 1013.3 |
| 20260505170030 | 58 | 34 | 7.0 | 11.3 | 0.00 | 0.02 | 0.00 | 64 | 1013.3 |
| 20260505164531 | 58 | 76 | 5.2 | 10.4 | 0.00 | 0.02 | 0.00 | 63 | 1013.3 |
| 20260505163030 | 59 | 39 | 4.3 | 10.4 | 0.00 | 0.02 | 0.00 | 64 | 1013.2 |
| 20260505161532 | 58 | 328 | 7.0 | 12.2 | 0.00 | 0.02 | 0.00 | 64 | 1013.2 |
| 20260505153032 | 59 | 78 | 4.3 | 11.3 | 0.00 | 0.02 | 0.00 | 61 | 1013.4 |
| 20260505151536 | 60 | 25 | 3.5 | 11.3 | 0.00 | 0.02 | 0.00 | 62 | 1013.3 |
| 20260505124533 | 60 | 53 | 1.7 | 7.0 | 0.00 | 0.02 | 0.00 | 57 | 1013.6 |
| 20260505123035 | 60 | 24 | 2.6 | 7.8 | 0.00 | 0.02 | 0.00 | 58 | 1013.7 |
| 20260505121537 | 60 | 117 | 0.9 | 7.8 | 0.00 | 0.02 | 0.00 | 60 | 1013.6 |
| 20260505120054 | 60 | 347 | 3.5 | 7.8 | 0.00 | 0.02 | 0.00 | 56 | 1013.6 |
| 20260505114530 | 59 | 70 | 6.1 | 13.9 | 0.00 | 0.09 | 0.00 | 61 | 1013.7 |
| 20260505113032 | 58 | 96 | 4.3 | 8.7 | 0.00 | 0.09 | 0.00 | 62 | 1013.8 |
| 20260505111528 | 58 | 16 | 2.6 | 8.7 | 0.00 | 0.09 | 0.00 | 61 | 1013.9 |
| 20260505101529 | 58 | 50 | 4.3 | 7.0 | 0.00 | 0.09 | 0.00 | 63 | 1014.4 |
| 20260505100030 | 56 | 41 | 1.7 | 8.7 | 0.00 | 0.09 | 0.00 | 64 | 1014.4 |
| 20260505094530 | 57 | 301 | 4.3 | 8.7 | 0.00 | 0.09 | 0.00 | 66 | 1014.5 |
| 20260505093033 | 56 | 6 | 4.3 | 8.7 | 0.00 | 0.09 | 0.00 | 66 | 1014.5 |
| 20260505091530 | 56 | 18 | 4.3 | 8.7 | 0.00 | 0.09 | 0.00 | 69 | 1014.6 |
| 20260505090040 | 55 | 30 | 4.3 | 8.7 | 0.00 | 0.09 | 0.00 | 70 | 1014.6 |
| 20260505084530 | 56 | 41 | 3.5 | 7.8 | 0.00 | 0.10 | 0.00 | 72 | 1014.6 |
| 20260505083029 | 56 | 89 | 0.9 | 4.3 | 0.00 | 0.10 | 0.00 | 75 | 1014.5 |
| 20260505081539 | 55 | 89 | 0.9 | 5.2 | 0.00 | 0.10 | 0.00 | 78 | 1014.6 |
| 20260505080038 | 54 | 70 | 0.9 | 4.3 | 0.00 | 0.10 | 0.00 | 81 | 1014.6 |
| 20260505074531 | 53 | 37 | 1.7 | 7.0 | 0.00 | 0.11 | 0.00 | 83 | 1014.5 |
| 20260505073046 | 53 | 309 | 2.6 | 6.1 | 0.00 | 0.11 | 0.00 | 86 | 1014.5 |
| 20260505071530 | 53 | 14 | 2.6 | 6.1 | 0.00 | 0.11 | 0.00 | 87 | 1014.5 |
| 20260505070034 | 53 | 326 | 1.7 | 3.5 | 0.00 | 0.11 | 0.00 | 88 | 1014.6 |
| 20260505064540 | 53 | 13 | 0.9 | 4.3 | 0.00 | 0.15 | 0.00 | 87 | 1014.6 |
| 20260505063030 | 53 | 0 | 0.0 | 1.7 | 0.00 | 0.15 | 0.00 | 87 | 1014.6 |
| 20260505061547 | 53 | 29 | 0.9 | 3.5 | 0.00 | 0.15 | 0.00 | 88 | 1014.4 |
| 20260505060035 | 52 | 0 | 0.0 | 1.7 | 0.00 | 0.15 | 0.00 | 88 | 1014.4 |
| 20260505054556 | 52 | 0 | 0.0 | 3.5 | 0.00 | 0.24 | 0.00 | 88 | 1014.3 |
| 20260505053035 | 53 | 14 | 0.0 | 2.6 | 0.00 | 0.24 | 0.00 | 88 | 1014.3 |
| 20260505051533 | 53 | 340 | 0.9 | 4.3 | 0.00 | 0.24 | 0.00 | 88 | 1014.3 |
| 20260505041531 | 53 | 0 | 0.0 | 2.6 | 0.00 | 0.25 | 0.00 | 89 | 1014.2 |
| 20260505040030 | 54 | 27 | 0.0 | 1.7 | 0.00 | 0.25 | 0.00 | 89 | 1014.3 |
| 20260505034530 | 54 | 0 | 0.0 | 2.6 | 0.00 | 0.25 | 0.00 | 89 | 1014.1 |
| 20260505033030 | 53 | 0 | 0.0 | 3.5 | 0.00 | 0.25 | 0.00 | 88 | 1014.2 |
| 20260505031542 | 54 | 0 | 0.0 | 3.5 | 0.00 | 0.25 | 0.00 | 89 | 1014.2 |
| 20260505030031 | 54 | 0 | 0.0 | 1.7 | 0.00 | 0.25 | 0.00 | 89 | 1014.2 |
| 20260505024538 | 54 | 90 | 0.0 | 1.7 | 0.00 | 0.25 | 0.00 | 90 | 1014.1 |
| 20260505023033 | 54 | 0 | 0.0 | 0.9 | 0.00 | 0.25 | 0.00 | 90 | 1014.2 |
| 20260505021532 | 54 | 18 | 0.0 | 0.9 | 0.00 | 0.25 | 0.00 | 90 | 1014.1 |
| 20260505020033 | 54 | 0 | 0.0 | 2.6 | 0.00 | 0.25 | 0.00 | 90 | 1014.2 |
| 20260505014535 | 55 | 86 | 0.9 | 3.5 | 0.00 | 0.25 | 0.00 | 90 | 1014.2 |
| 20260505013029 | 54 | 53 | 0.9 | 3.5 | 0.00 | 0.25 | 0.00 | 90 | 1014.4 |
| 20260505011534 | 54 | 79 | 0.0 | 2.6 | 0.00 | 0.25 | 0.00 | 91 | 1014.4 |
| 20260505010030 | 55 | 0 | 0.0 | 1.7 | 0.00 | 0.25 | 0.00 | 92 | 1014.5 |
| 20260505004544 | 55 | 0 | 0.0 | 1.7 | 0.00 | 0.25 | 0.00 | 92 | 1014.6 |
| 20260505003032 | 55 | 25 | 0.0 | 1.7 | 0.00 | 0.25 | 0.00 | 92 | 1014.7 |
| 20260505001531 | 55 | 43 | 0.0 | 2.6 | 0.00 | 0.25 | 0.00 | 93 | 1014.7 |
| 20260505000049 | 55 | 18 | 0.0 | 1.7 | 0.00 | 0.25 | 0.00 | 93 | 1014.8 |
| 20260504234532 | 55 | 0 | 0.0 | 1.7 | 0.00 | 0.25 | 0.00 | 93 | 1014.8 |
| 20260504233032 | 55 | 0 | 0.0 | 3.5 | 0.00 | 0.25 | 0.00 | 93 | 1014.8 |
| 20260504231532 | 55 | 99 | 1.7 | 4.3 | 0.02 | 0.25 | 0.00 | 93 | 1014.9 |
| 20260504230030 | 55 | 80 | 0.9 | 4.3 | 0.02 | 0.25 | 0.00 | 93 | 1014.8 |
| 20260504224532 | 55 | 75 | 0.0 | 5.2 | 0.02 | 0.25 | 0.25 | 93 | 1014.8 |
| 20260504223030 | 55 | 0 | 0.0 | 1.7 | 0.01 | 0.25 | 0.25 | 92 | 1014.9 |
| 20260504221539 | 56 | 98 | 0.0 | 5.2 | 0.00 | 0.23 | 0.23 | 92 | 1014.9 |
| 20260504220031 | 56 | 49 | 0.9 | 3.5 | 0.00 | 0.23 | 0.23 | 90 | 1014.9 |